STARLINK-4554, 53626

Orbit data source: Space-Track

STARLINK-4554, 53626 is a payload satellite owned by SpaceX/Seattle (US) in LEO that was launched on Sun, 28 Aug 2022 UTC via an FALCON 9 launch vehicle from the Air Force Eastern Test Range (AFETR). Payload-class satellites include a variety of spacecraft equipped with specific instruments for various scientific and technological missions. These include communications satellites like Starlink; space stations such as the ISS; scientific satellites like the Hubble; Earth observation satellites from companies like Planet Labs, Umbra, and HawkEye 360; GPS; miniature CubeSats for education and research; and military/defense satellites.

Loading next visibility...
Identifier
53626, 2022-104AQ
Orbit
LEO
Country
Flag of USUS
Related business
Manufacturer
SpaceX/Seattle
Mission
Operational Commercial Communications
Bus & Motor
STARLINK, Unknown motor
Mass
300 kg wet, ~290 kg dry
Launch date (UTC)
2022-08-28 (3 years ago)
Launch vehicle
FALCON 9
Launch site
Air Force Eastern Test Range (AFETR)
Object type
Payload
Rocket body
Debris
Shape & HBR
Box + 1 Pan, 10.1 m
Radar Cross Section
13.562 m², Large (>1 m²)

Expand to show TLE details & history
Last TLE update: 21 hours ago

TLE from 21 hours ago
0 STARLINK-4554
1 53626U 22104AQ  25347.46869445  .00001666  00000-0  12277-3 0  9999
2 53626  53.2186 260.8254 0001548  95.8930 264.2239 15.08834639182745
Epoch: 2025-12-13T11:14Z
TLE epoch observation values (Epoch: 2025-12-13T11:14:55.200Z)
Latitude
0.00001°
Longitude
9.69988°
Altitude
540.765 km
Speed
7.593 km/s
True Right ascension
17h 23m 18s
True Declination
0° 00' 00"
Sunlit
Object was in daylight at epoch
Visualization orbit readout
Latitude
Unknown
Longitude
Unknown
Altitude
Unknown
Speed
Unknown
Apparent Right ascension
Unknown
Apparent Declination
Unknown
Sunlit
N/A
Visualization observer readout
Local Sidereal Time
06:30:02
Azimuth
Unknown
Elevation
Unknown
Doppler factor
Unknown
Orbital elements
Apogee altitude
541.075 km
Perigee altitude
538.934 km
Semi-major axis
6,918.142 km
Eccentricity
0.00015
Inclination
53.2186°
RAAN
260.8254°
Arg. of periapsis
95.893°
True anomaly
264.20625°
Mean anomaly
264.2239°
Eccentric anomaly
264.21508°
Mean motion
3.77189 °/min
Orbital period
95.44 mins
BSTAR
0.00012277
Loading maneuver chart data...
Computing Atmospheric mass density...
Loading historical data...
Loading historical data...
Loading historical data...
Loading historical data...
Loading historical data...
Loading historical data...
Loading historical data...

Documentation

Showing up to 5 results
|